INTELSAT 36 (IS-36)

Last updated on Sun Jun 21 2026 00:03:07 GMT+0000 (Coordinated Universal Time)

1 41747U 16053A 26171.02061186 -.00000029 00000+0 00000+0 0 9999 2 41747 0.0114 8.6950 0002300 324.1758 11.2854 1.00268779 35980
UTC large
Height (km)
Speed (km/s)
/
Latitude / Longitude
Inclination (degrees)
Orbital Period (minutes)
Azimuth
Elevation
Range (km)
Doppler Factor

Next 0 passes for location: London (51.5072 / 0.1276)

No passes found over London.
INTELSAT 36 (IS-36)